[[{"header":{"parameterUnit":"m.s-1","parameterCategory":1,"la1":30.2991,"la2":30.254,"lo1":-89.0895,"lo2":-89.0444,"dy":0.0017,"dx":0.0017,"nx":28,"ny":28,"refTime":"2024-07-29T09:00:00:Z","depth":0,"parameterNumber":2,"parameterNumberName":"U-component_of_WINDS"},"data":[0,0,0,0,0,0,0,0,0,0,0,0,0,0,0,0,0,0,0,0,0,0,0,0,0,0,0,0,0,0,0,0,0,0,0,0,0,0,0,0,0,0,0,0,0,0,0,0,0,0,0,0,0,0,0,0,0,0,3.8017,3.8018,0,3.8132,3.8134,3.8135,3.8085,3.8082,3.8079,3.8077,3.8198,3.8203,3.8209,0,0,0,0,0,0,0,0,0,0,0,0,0,3.7752,3.7757,3.8016,3.8018,3.8019,3.8132,3.8134,3.8135,3.8086,3.8082,3.8079,3.8075,3.8196,3.8203,3.821,0,0,0,0,0,0,0,0,0,0,0,0,0,3.7867,3.7758,3.8016,3.8008,3.8008,3.8132,3.8134,3.8136,3.8086,3.8082,3.8078,3.8074,3.8193,3.8202,3.8211,3.835,0,0,3.8237,3.8241,0,0,0,0,0,0,0,0,3.7861,3.7877,3.8008,3.8009,3.8009,3.809,3.8085,3.8208,3.8087,3.8057,3.8077,3.8072,3.8165,3.8176,3.8207,3.8355,3.836,3.8238,3.8244,3.8247,3.825,0,0,0,0,0,0,0,3.7853,3.7872,3.8062,3.801,3.8011,3.7998,3.801,3.8108,3.8134,3.8059,3.8056,3.807,3.8165,3.8199,3.821,3.8362,3.8238,3.8246,3.8251,3.8255,3.8625,3.863,0,0,0,0,0,0,3.7845,3.7865,3.8059,3.8066,3.7923,3.8007,3.802,3.8068,3.8132,3.8138,3.8074,3.8067,3.8186,3.82,3.8214,3.8377,3.8247,3.8255,3.8261,3.8621,3.8626,3.8631,0,0,0,0,0,0,3.7839,3.7862,3.8054,3.7965,3.7988,3.8016,3.8071,3.8073,3.8107,3.8143,3.8148,3.8103,3.8183,3.8201,3.8315,3.8381,3.8259,3.8267,3.8615,3.8623,3.8629,3.8707,0,0,0,0,0,0,3.7832,3.7861,3.7914,3.7966,3.7993,3.8154,3.8075,3.8078,3.8122,3.8115,3.8172,3.8178,3.8181,3.8302,3.8324,3.8391,3.8274,3.861,3.8619,3.8627,3.8699,3.8716,3.8731,0,0,0,0,0,3.7822,3.7933,3.7917,3.7941,3.806,3.8158,3.8173,3.8174,3.8127,3.818,3.8203,3.8176,3.8371,3.8314,3.8338,3.8409,3.8605,3.8616,3.8626,3.8692,3.8713,3.873,0,0,0,0,0,0,3.7889,3.794,3.7923,3.8053,3.8101,3.8149,3.8216,3.8197,3.826,3.825,3.825,3.8263,3.838,3.8406,3.8342,3.8544,3.8481,3.8496,3.8523,3.8543,3.8558,3.8548,3.8282,0,0,0,0,0,3.7919,3.7994,3.8034,3.8145,3.817,3.8189,3.8232,3.8228,3.8278,3.8298,3.833,3.838,3.8451,3.8499,3.8568,3.8703,3.8713,3.8763,3.8779,3.8792,3.8805,3.8874,3.8896,3.8665,3.8665,3.8665,0,0,3.7982,3.8018,3.8066,3.8159,3.8196,3.8272,3.8207,3.8291,3.8347,3.8312,3.8419,3.8444,3.85,3.8623,3.868,3.8649,3.8871,3.8805,3.8815,3.8821,3.8887,3.8909,3.8928,3.8672,3.8671,3.867,0,0,3.8134,3.8171,3.8265,3.8303,3.8358,3.837,3.8393,3.8443,3.8457,3.8565,3.8538,3.8606,3.8731,3.877,3.8806,3.897,3.8946,3.8993,3.9075,3.9143,3.9161,3.9177,3.9232,3.9252,3.9006,3.9006,3.9007,0,3.8205,3.8319,3.8317,3.8402,3.8443,3.8412,3.8507,3.8544,3.862,3.8648,3.8613,3.8766,3.8802,3.8932,3.8972,3.9004,3.9028,3.8986,3.9159,3.9175,3.919,3.9242,3.9263,3.9011,3.9011,3.901,3.901,0,3.8401,3.848,3.855,3.8621,3.867,3.8761,3.8771,3.8821,3.8813,3.8828,3.8937,3.8978,3.9052,3.9084,3.9078,3.9213,3.9191,3.9158,3.9093,3.9217,3.9266,3.9286,3.9019,3.9017,3.9015,3.9014,0,0,3.8599,3.8666,3.8692,3.8722,3.878,3.8841,3.8929,3.9,3.9041,3.9094,3.9166,3.9271,3.9239,3.928,3.9278,3.9338,3.9461,3.9296,3.9297,3.9322,3.9608,3.9631,3.9654,3.9446,3.945,3.9453,3.9602,0,3.8753,3.8905,3.8905,3.9046,3.9117,3.9087,3.9163,3.9207,3.9223,3.9285,3.9303,3.9376,3.933,3.9354,3.9412,3.9433,3.9517,3.9423,3.9511,3.9514,3.9495,3.9681,3.9706,3.9845,3.9622,3.9625,3.9627,0,3.8954,3.901,3.9157,3.92,3.923,3.9299,3.9362,3.9423,3.9471,3.9478,3.9522,3.951,3.9598,3.9532,3.9652,3.9587,3.9623,3.9639,3.9644,3.9651,3.9576,3.9689,3.989,3.9909,3.9658,3.9656,3.9654,0,3.9079,3.9192,3.9293,3.9321,3.9376,3.9423,3.9449,3.9492,3.9534,3.959,3.9616,3.9683,3.9718,3.9769,3.9774,3.9727,3.9894,3.9829,3.99,3.99,3.9935,3.9932,4.0141,3.9963,3.9963,3.9963,3.9962,0,3.9249,3.9339,3.935,3.9412,3.9511,3.951,3.9608,3.9629,3.9668,3.9732,3.9713,3.9774,3.9779,3.9841,3.9847,3.9943,3.996,3.9967,3.9967,3.9967,3.9966,3.9989,3.9978,3.9968,3.9967,3.9966,3.9965,0,3.9405,3.9416,3.9524,3.9566,3.9579,3.965,3.9685,3.9744,3.9757,3.9839,3.9858,3.9879,3.9952,3.9962,4.0049,4.0052,4.0166,4.0157,4.0149,4.0147,4.0216,4.0208,4.0445,4.0474,4.028,4.0282,4.0283,0,3.9512,3.958,3.9628,3.9669,3.9696,3.9764,3.9805,3.9806,3.985,3.9907,3.9958,4.0029,4.0084,4.0202,4.0224,4.0289,4.028,4.0358,4.0289,4.0286,4.0277,4.0271,4.0276,4.0371,4.0373,4.0375,4.0376,0,3.9698,3.97,3.976,3.9821,3.987,3.9919,3.9965,4.0,4.0007,4.0057,4.013,4.0173,4.0259,4.0328,4.0391,4.0417,4.0397,4.0398,4.0417,4.0417,4.0407,4.0409,4.0182,4.0392,4.039,4.0389,4.0388,4.0388,3.9831,3.9888,3.993,3.9997,4.0031,4.0073,4.0129,4.0148,4.0208,4.0277,4.0274,4.0353,4.0397,4.0479,4.0509,4.057,4.0545,4.0574,4.058,4.0587,4.0591,4.04,4.0583,4.0582,4.0582,4.0582,4.0581,0,4.0013,4.0038,4.0099,4.0162,4.0214,4.019,4.0239,4.0284,4.0353,4.0395,4.0449,4.0531,4.0597,4.0624,4.0689,4.0733,4.0725,4.0749,4.0744,4.075,4.0613,4.0588,4.0754,4.0754,4.0754,4.0754,4.0754,4.0754,4.0114,4.0209,4.0214,4.0325,4.0349,4.0425,4.0455,4.0493,4.0525,4.0617,4.0671,4.0688,4.0723,4.0789,4.0848,4.0854,4.0877,4.0905,4.0907,4.0778,4.076,4.0743,4.072,4.0911,4.0911,4.1038,4.104,4.1041]},{"header":{"parameterUnit":"m.s-1","parameterCategory":1,"la1":30.2991,"la2":30.254,"lo1":-89.0895,"lo2":-89.0444,"dy":0.0017,"dx":0.0017,"nx":28,"ny":28,"refTime":"2024-07-29T09:00:00:Z","depth":0,"parameterNumber":3,"parameterNumberName":"V-component_of_WINDS"},"data":[0,0,0,0,0,0,0,0,0,0,0,0,0,0,0,0,0,0,0,0,0,0,0,0,0,0,0,0,0,0,0,0,0,0,0,0,0,0,0,0,0,0,0,0,0,0,0,0,0,0,0,0,0,0,0,0,0,0,1.3277,1.3278,0,1.3314,1.3315,1.3315,1.3299,1.3299,1.3298,1.3297,1.3334,1.3335,1.3337,0,0,0,0,0,0,0,0,0,0,0,0,0,1.319,1.3192,1.3277,1.3278,1.3278,1.3314,1.3315,1.3315,1.33,1.3299,1.3297,1.3296,1.3333,1.3335,1.3337,0,0,0,0,0,0,0,0,0,0,0,0,0,1.3228,1.3193,1.3277,1.3275,1.3275,1.3314,1.3315,1.3316,1.33,1.3298,1.3297,1.3296,1.3332,1.3335,1.3338,1.3381,0,0,1.3346,1.3347,0,0,0,0,0,0,0,0,1.3226,1.3231,1.3275,1.3275,1.3275,1.3301,1.3298,1.3338,1.33,1.329,1.3297,1.3295,1.3324,1.3327,1.3337,1.3383,1.3385,1.3346,1.3348,1.3349,1.335,0,0,0,0,0,0,0,1.3223,1.3229,1.3292,1.3275,1.3276,1.3271,1.3275,1.3305,1.3314,1.3291,1.329,1.3295,1.3324,1.3334,1.3338,1.3385,1.3346,1.3349,1.335,1.3351,1.3468,1.3469,0,0,0,0,0,0,1.3221,1.3227,1.3291,1.3293,1.3247,1.3274,1.3278,1.3294,1.3314,1.3315,1.3296,1.3294,1.333,1.3335,1.3339,1.3391,1.3349,1.3352,1.3353,1.3466,1.3468,1.347,0,0,0,0,0,0,1.3219,1.3227,1.3289,1.326,1.3268,1.3277,1.3295,1.3295,1.3306,1.3317,1.3319,1.3305,1.333,1.3335,1.3371,1.3392,1.3353,1.3355,1.3465,1.3467,1.3469,1.3495,0,0,0,0,0,0,1.3217,1.3226,1.3243,1.326,1.3269,1.3321,1.3296,1.3297,1.3311,1.3309,1.3327,1.3328,1.3329,1.3367,1.3374,1.3395,1.3357,1.3463,1.3466,1.3468,1.3492,1.3498,1.3503,0,0,0,0,0,1.3213,1.3249,1.3244,1.3252,1.3291,1.3322,1.3327,1.3328,1.3313,1.333,1.3337,1.3328,1.3388,1.3371,1.3378,1.3401,1.3461,1.3465,1.3468,1.349,1.3497,1.3502,0,0,0,0,0,0,1.3234,1.3252,1.3246,1.3289,1.3304,1.332,1.3341,1.3335,1.3355,1.3352,1.3351,1.3355,1.3392,1.34,1.338,1.3443,1.3422,1.3427,1.3437,1.3443,1.3448,1.3446,1.336,0,0,0,0,0,1.3244,1.3269,1.3282,1.3318,1.3326,1.3332,1.3346,1.3345,1.3361,1.3367,1.3377,1.3392,1.3414,1.3429,1.3451,1.3493,1.3496,1.3512,1.3517,1.3521,1.3526,1.3548,1.3555,1.348,1.348,1.348,0,0,1.3264,1.3276,1.3292,1.3323,1.3335,1.3359,1.3338,1.3365,1.3383,1.3371,1.3405,1.3413,1.343,1.3469,1.3486,1.3476,1.3547,1.3526,1.3529,1.3531,1.3552,1.3559,1.3565,1.3483,1.3482,1.3482,0,0,1.3313,1.3325,1.3356,1.3368,1.3387,1.339,1.3398,1.3414,1.3419,1.3453,1.3444,1.3465,1.3504,1.3516,1.3527,1.3579,1.3571,1.3586,1.3613,1.3634,1.364,1.3645,1.3663,1.367,1.359,1.359,1.3591,0,1.3336,1.3373,1.3373,1.3401,1.3414,1.3404,1.3435,1.3447,1.3471,1.348,1.3468,1.3516,1.3527,1.3568,1.3581,1.359,1.3598,1.3584,1.364,1.3645,1.365,1.3667,1.3673,1.3592,1.3592,1.3592,1.3592,0,1.3399,1.3425,1.3448,1.3472,1.3487,1.3517,1.352,1.3536,1.3533,1.3538,1.3572,1.3584,1.3607,1.3617,1.3615,1.3658,1.3651,1.364,1.3619,1.3658,1.3674,1.3681,1.3594,1.3594,1.3593,1.3593,0,0,1.3463,1.3486,1.3494,1.3504,1.3523,1.3543,1.3571,1.3594,1.3607,1.3623,1.3646,1.3679,1.3668,1.3681,1.368,1.3699,1.3738,1.3685,1.3685,1.3694,1.3785,1.3793,1.3801,1.3733,1.3734,1.3735,1.3783,0,1.3513,1.3563,1.3563,1.3609,1.3632,1.3623,1.3647,1.3661,1.3665,1.3685,1.369,1.3713,1.3698,1.3705,1.3723,1.3729,1.3756,1.3726,1.3753,1.3754,1.3749,1.3809,1.3818,1.3863,1.379,1.3791,1.3791,0,1.3578,1.3597,1.3645,1.366,1.3669,1.3692,1.3712,1.3731,1.3746,1.3748,1.3762,1.3757,1.3785,1.3763,1.38,1.378,1.3791,1.3795,1.3797,1.3799,1.3775,1.3813,1.3878,1.3884,1.3801,1.3801,1.38,0,1.3619,1.3657,1.369,1.3699,1.3717,1.3732,1.374,1.3754,1.3767,1.3785,1.3793,1.3813,1.3824,1.384,1.384,1.3825,1.3878,1.3857,1.388,1.388,1.3891,1.389,1.3959,1.3899,1.3899,1.3899,1.3899,0,1.3675,1.3705,1.3708,1.3729,1.3761,1.3761,1.3793,1.3799,1.3811,1.3832,1.3825,1.3844,1.3844,1.3864,1.3864,1.3894,1.39,1.3901,1.3901,1.3902,1.3902,1.3909,1.3906,1.3901,1.39,1.39,1.39,0,1.3726,1.373,1.3766,1.3779,1.3783,1.3807,1.3818,1.3837,1.3841,1.3867,1.3873,1.3879,1.3902,1.3904,1.393,1.393,1.3967,1.3963,1.3962,1.3961,1.3984,1.3982,1.4059,1.4069,1.4003,1.4004,1.4005,0,1.3761,1.3784,1.38,1.3813,1.3822,1.3845,1.3858,1.3858,1.3872,1.389,1.3906,1.3928,1.3946,1.3982,1.3988,1.4008,1.4005,1.403,1.4008,1.4007,1.4004,1.4003,1.4005,1.4035,1.4036,1.4036,1.4037,0,1.3823,1.3823,1.3843,1.3864,1.388,1.3896,1.3911,1.3922,1.3924,1.394,1.3963,1.3977,1.4003,1.4025,1.4044,1.4051,1.4044,1.4044,1.405,1.4051,1.4049,1.4049,1.3974,1.4042,1.4041,1.4041,1.4041,1.4041,1.3867,1.3886,1.39,1.3922,1.3933,1.3947,1.3965,1.3971,1.3991,1.4013,1.4011,1.4036,1.4049,1.4074,1.4083,1.4102,1.4093,1.4103,1.4105,1.4107,1.4109,1.4046,1.4106,1.4106,1.4105,1.4105,1.4105,0,1.3927,1.3935,1.3956,1.3977,1.3994,1.3986,1.4002,1.4016,1.4039,1.4052,1.4069,1.4095,1.4116,1.4123,1.4143,1.4157,1.4154,1.4162,1.4161,1.4162,1.4116,1.4109,1.4164,1.4164,1.4164,1.4164,1.4164,1.4164,1.396,1.3992,1.3994,1.4031,1.4039,1.4064,1.4074,1.4086,1.4096,1.4126,1.4143,1.4148,1.4158,1.4178,1.4197,1.4198,1.4205,1.4215,1.4215,1.4172,1.4166,1.416,1.4153,1.4217,1.4217,1.4259,1.426,1.426]}]]